Regional Weather Roundup
Issued by NWS

Home | Current Version | Previous Version | Graphics & Text | Print | Product List | Glossary On
Versions: 1 2 3 4 5 6 7 8 9 10 11 12 13 14 15 16 17 18 19 20 21 22 23 24 25 26 27 28 29 30 31 32 33 34 35 36 37 38 39 40 41 42 43 44 45 46 47 48 49 50
000
ASUS43 KMPX 222101
RWRMN
WEATHER ROUNDUP FOR MINNESOTA
NATIONAL WEATHER SERVICE TWIN CITIES/CHANHASSEN MN
400 PM CDT FRI AUG 22 2014


NOTE: "FAIR" INDICATES FEW OR NO CLOUDS BELOW 12,000 FEET WITH NO
SIGNIFICANT WEATHER AND/OR OBSTRUCTIONS TO VISIBILITY. N/A MEANS
CURRENT SKY AND/OR WEATHER CONDITIONS ARE NOT AVAILABLE.

MNZ060>063-068>070-222200-
   Twin Cities Metro

CITY           SKY/WX    TMP DP  RH WIND       PRES   REMARKS
TWIN CITIES    CLOUDY    79  68  69 NW7       29.96F
ST PAUL        CLOUDY    77  68  73 N3        29.96F
CRYSTAL        CLOUDY    77  67  71 N3        29.96F
LAKEVILLE      CLOUDY    77  68  73 N6        29.97S
EDEN PRAIRIE   CLOUDY    77  69  76 CALM      29.96F
SOUTH ST PAUL  PTSUNNY   77  68  74 CALM      29.96F
LAKE ELMO      CLOUDY    75  70  83 NW6       29.98S
$$
MNZ001>005-007-008-013>017-022>024-027-028-222200-
   Northwest Minnesota

CITY           SKY/WX    TMP DP  RH WIND       PRES   REMARKS
BEMIDJI        PTSUNNY   77  66  68 NE5       29.99S
HALLOCK        CLOUDY    70  64  83 NW12      30.03R
ROSEAU         LGT RAIN  68  63  83 NE6       30.02S
WARROAD        MIX PCPN  70  66  88 NE3       30.03R
THIEF RVR FALL CLOUDY    72  66  83 N12       30.01R
CROOKSTON      CLOUDY    70  66  88 N10       30.01S
FOSSTON        PTSUNNY   72  66  83 NW9       30.01R
DETROIT LAKES  PTSUNNY   73  68  83 NW13G20   30.02R
MOORHEAD       PTSUNNY   73  72  94 N5        30.02R
PARK RAPIDS    PTSUNNY   77  66  68 S6        29.98S
MAHNOMEN       CLOUDY    73  68  84 NW9       30.00R
$$
MNZ006-009>011-018-025>026-222200-
   North Central Minnesota

CITY           SKY/WX    TMP DP  RH WIND       PRES   REMARKS
BAUDETTE       PTSUNNY   74  66  76 N6        30.01R
FLAG ISLAND    CLOUDY    70  63  78 N3        30.02R
INTL FALLS     CLOUDY    74  64  71 N7        30.01R
WASKISH        CLOUDY    75  68  78 CALM      30.00R
BIG FORK       PTSUNNY  N/A N/A N/A CALM      30.01R
LONGVILLE      PTSUNNY   79  66  65 S5        29.99S
GRAND RAPIDS   CLOUDY    73  66  78 SE3       30.00S
CRANE LAKE     CLOUDY    72  66  83 CALM      30.02S
ORR            CLOUDY    73  63  68 CALM      29.98R
COOK           PTSUNNY   73  66  78 CALM      30.01S
WALKER         FAIR      76  65  67 CALM      29.99S
$$
MNZ012-019>021-037-222200-
   Northeast Minnesota

CITY           SKY/WX    TMP DP  RH WIND       PRES   REMARKS
DULUTH         CLOUDY    65  61  87 E7        30.01S FOG
ELY            CLOUDY    72  64  78 CALM      30.01S
HIBBING        CLOUDY    75  66  73 CALM      30.00S
EVELETH        CLOUDY    72  64  78 CALM      30.01S
DULUTH HARBOR  CLOUDY    63  61  94 NE6       30.01S
TWO HARBORS    CLOUDY    66  61  82 SE6       29.99S
SILVER BAY     SUNNY     66  64  94 NE8       29.99S
GRAND MARAIS     N/A     64  60  87 NE7       30.01R
G MARAIS ARPRT CLOUDY    63  59  88 CALM      30.06R FOG
$$
MNZ029>031-032-039>041-046>048-054>057-064-222200-
   West Central Minnesota

CITY           SKY/WX    TMP DP  RH WIND       PRES   REMARKS
FERGUS FALLS   CLOUDY    79  64  61 NW9       29.98S
WHEATON        PTSUNNY   77  66  69 CALM      30.00F
MORRIS         MOSUNNY   84  68  58 W5        29.97F
ALEXANDRIA     MOSUNNY   83  65  54 CALM      30.00F
ELBOW LAKE     FAIR      79  69  73 NW5       29.99S
WADENA         PTSUNNY   79  68  69 S6        29.98S
GLENWOOD       MOSUNNY   81  66  61 CALM      30.00S
APPLETON       MOSUNNY   86  66  51 NE5       29.96F
BENSON         MOSUNNY   82  66  57 CALM      29.97F
ORTONVILLE     MOSUNNY   81  66  61 N5        29.98F
MADISON        SUNNY     84  70  61 N3        29.98S
WILLMAR        FAIR      82  66  57 NW3       29.98F
$$
MNZ033>034-036-042>043-049>051-058-059-222200-
   Central Minnesota

CITY           SKY/WX    TMP DP  RH WIND       PRES   REMARKS
ST CLOUD       CLOUDY    78  68  71 N3        29.98S
SAUK CENTRE    MOCLDY    79  68  69 NE5       29.99S
PAYNESVILLE    PTSUNNY   77  67  71 NW5       29.99S
AITKIN         CLOUDY    77  68  73 CALM      29.99R
PINE RIVER     PTSUNNY   75  66  73 S5        30.02S
BRAINERD       PTSUNNY   74  66  76 SE3       29.99F
STAPLES        PTSUNNY   77  64  65 SE3       29.99S
LONG PRAIRIE   FAIR      77  66  69 N5        30.00F
LITTLE FALLS   PTSUNNY   73  64  73 CALM      29.99S
LITCHFIELD     PTSUNNY   81  72  74 CALM      29.98F
BUFFALO        CLOUDY    76  67  74 CALM      29.99S
MAPLE LAKE     CLOUDY    76  70  81 N3        30.00S
$$
MNZ037-044-045-052-053-222200-
   East Central Minnesota

CITY           SKY/WX    TMP DP  RH WIND       PRES   REMARKS
PRINCETON      CLOUDY    75  70  83 CALM      29.99R
MORA           CLOUDY    72  64  78 CALM      30.00S
CAMBRIDGE      CLOUDY    75  64  69 W3        29.97R
RUSH CITY      CLOUDY    73  67  81 CALM      29.99R
MOOSE LAKE     CLOUDY    68  63  83 NE3       29.99R
HINCKLEY       CLOUDY    72  68  88 NE5       29.99S
CLOQUET        CLOUDY    68  63  83 E6        30.01S
MCGREGOR       CLOUDY    72  66  83 CALM      30.01R
$$
MNZ071>073-080-081-089-090-097-098-222200-
   Southwest Minnesota

CITY           SKY/WX    TMP DP  RH WIND       PRES   REMARKS
MONTEVIDEO     MOSUNNY   88  72  58 NE3       29.98S HX  94
GRANITE FALLS  MOSUNNY   81  70  69 NE5       29.98F
CANBY          MOSUNNY   83  68  60 N6        29.99S
MARSHALL       PTSUNNY   84  70  61 NE7       29.97S
REDWOOD FALLS  MOSUNNY   83  68  60 N5        29.96F
OLIVIA         SUNNY     82  68  61 NW5       29.97S
PIPESTONE      MOSUNNY   82  66  57 NE5       29.99F
WINDOM         MOSUNNY   82  70  65 NE6       29.98F
WORTHINGTON      N/A     81  70  69 NE7       30.00S
JACKSON        MOSUNNY   82  66  57 NE3       29.99S
TRACY          MOSUNNY   81  70  68 NE6       29.97F
SLAYTON        MOSUNNY   82  67  60 CALM      30.00F
$$
MNZ065>067-074>077-082>085-091>093-222200-
   South Central Minnesota

CITY           SKY/WX    TMP DP  RH WIND       PRES   REMARKS
MANKATO        MOSUNNY   81  66  61 N5        29.96S
NEW ULM        SUNNY     82  72  69 CALM      29.96F
ST JAMES       PTSUNNY   84  70  61 CALM      29.97F
FAIRMONT       SUNNY     75  66  73 CALM      29.97S
GLENCOE        MOSUNNY   81  67  61 CALM      29.96F
FARIBAULT      SUNNY     86  64  48 NW3       29.96F
OWATONNA       MOSUNNY   82  68  61 NW6       29.96F
WASECA         MOSUNNY   79  63  57 CALM      29.98S
ALBERT LEA     SUNNY     82  72  69 N5        29.96S
$$
MNZ078>079-086>088-094>096-222200-
   Southeast Minnesota

CITY           SKY/WX    TMP DP  RH WIND       PRES   REMARKS
ROCHESTER      SUNNY     84  71  65 VRB6      29.96F
RED WING       PTSUNNY   81  70  69 NW6       29.93F
STANTON        MOSUNNY   82  69  65 NE5       29.94F
DODGE CENTER   SUNNY     81  72  74 N6        29.96F
WINONA         MOSUNNY   84  72  65 N3        29.92F
AUSTIN         MOSUNNY   82  72  69 W5        29.95F
PRESTON        MOSUNNY   83  75  78 NW5       29.96S HX  90
$$
ABBREVIATIONS USED IN REMARKS
   TC - TEMPERATURES IN CELSIUS
  WCI - WIND CHILL INDEX
   HX - HEAT INDEX
  VSB - VISIBILITY
$$


USA.gov is the U.S. government's official web portal to all federal, state and local government web resources and services.